TimeCDT,TemperatureF,Dew PointF,Humidity,Sea Level PressureIn,VisibilityMPH,Wind Direction,Wind SpeedMPH,Gust SpeedMPH,PrecipitationIn,Events,Conditions,WindDirDegrees,DateUTC
12:16 AM,84.2,68.0,58,29.91,10.0,South,8.1,-,N/A,,Clear,190,2013-08-31 05:16:00
12:55 AM,82.4,68.0,62,29.91,10.0,South,4.6,-,N/A,,Clear,180,2013-08-31 05:55:00
1:15 AM,82.4,68.0,62,29.91,10.0,South,4.6,-,N/A,,Clear,190,2013-08-31 06:15:00
1:35 AM,82.4,68.0,62,29.91,10.0,South,5.8,-,N/A,,Clear,180,2013-08-31 06:35:00
1:55 AM,82.4,68.0,62,29.91,10.0,South,4.6,-,N/A,,Clear,170,2013-08-31 06:55:00
2:15 AM,82.4,68.0,62,29.90,10.0,SSW,4.6,-,N/A,,Clear,210,2013-08-31 07:15:00
2:55 AM,80.6,69.8,70,29.90,10.0,West,3.5,-,N/A,,Clear,280,2013-08-31 07:55:00
3:15 AM,80.6,68.0,65,29.90,10.0,West,4.6,-,N/A,,Clear,270,2013-08-31 08:15:00
3:35 AM,80.6,68.0,65,29.90,10.0,WNW,4.6,-,N/A,,Clear,290,2013-08-31 08:35:00
3:55 AM,82.4,68.0,62,29.90,10.0,West,4.6,-,N/A,,Clear,270,2013-08-31 08:55:00
4:16 AM,80.6,68.0,65,29.90,10.0,Calm,Calm,-,N/A,,Clear,0,2013-08-31 09:16:00
5:15 AM,80.6,68.0,65,29.89,10.0,West,5.8,-,N/A,,Clear,260,2013-08-31 10:15:00
5:35 AM,78.8,66.2,65,29.90,10.0,Calm,Calm,-,N/A,,Clear,0,2013-08-31 10:35:00
5:55 AM,77.0,68.0,74,29.90,10.0,Calm,Calm,-,N/A,,Clear,0,2013-08-31 10:55:00
6:15 AM,77.0,68.0,74,29.90,10.0,Calm,Calm,-,N/A,,Clear,0,2013-08-31 11:15:00
6:35 AM,75.2,68.0,78,29.90,10.0,Calm,Calm,-,N/A,,Clear,0,2013-08-31 11:35:00
6:55 AM,77.0,68.0,74,29.90,10.0,Calm,Calm,-,N/A,,Clear,0,2013-08-31 11:55:00
7:15 AM,77.0,68.0,74,29.90,10.0,SSE,3.5,-,N/A,,Clear,150,2013-08-31 12:15:00
7:35 AM,78.8,68.0,69,29.91,10.0,Calm,Calm,-,N/A,,Clear,0,2013-08-31 12:35:00
7:55 AM,80.6,69.8,70,29.92,9.0,Calm,Calm,-,N/A,,Clear,0,2013-08-31 12:55:00
8:15 AM,80.6,69.8,70,29.92,10.0,SW,3.5,-,N/A,,Clear,220,2013-08-31 13:15:00
8:35 AM,82.4,69.8,66,29.93,10.0,SSW,4.6,-,N/A,,Clear,210,2013-08-31 13:35:00
8:55 AM,84.2,69.8,62,29.93,10.0,SSW,4.6,-,N/A,,Clear,200,2013-08-31 13:55:00
9:15 AM,84.2,71.6,66,29.93,10.0,WSW,5.8,-,N/A,,Clear,240,2013-08-31 14:15:00
9:35 AM,87.8,71.6,58,29.93,10.0,WSW,6.9,-,N/A,,Clear,240,2013-08-31 14:35:00
10:15 AM,89.6,73.4,59,29.93,10.0,WSW,5.8,-,N/A,,Clear,240,2013-08-31 15:15:00
10:35 AM,89.6,73.4,59,29.93,10.0,SW,6.9,-,N/A,,Clear,230,2013-08-31 15:35:00
10:55 AM,89.6,73.4,59,29.93,10.0,WSW,4.6,-,N/A,,Clear,240,2013-08-31 15:55:00
11:15 AM,91.4,73.4,55,29.92,10.0,SW,8.1,-,N/A,,Clear,230,2013-08-31 16:15:00
11:35 AM,93.2,73.4,52,29.92,10.0,SW,5.8,-,N/A,,Clear,230,2013-08-31 16:35:00
11:55 AM,93.2,73.4,52,29.91,10.0,West,8.1,-,N/A,,Clear,260,2013-08-31 16:55:00
12:15 PM,93.2,71.6,49,29.91,10.0,West,10.4,-,N/A,,Clear,270,2013-08-31 17:15:00
12:35 PM,93.2,71.6,49,29.91,10.0,West,5.8,-,N/A,,Clear,270,2013-08-31 17:35:00
12:55 PM,95.0,71.6,47,29.90,10.0,West,8.1,-,N/A,,Clear,260,2013-08-31 17:55:00
1:15 PM,95.0,71.6,47,29.90,10.0,West,8.1,-,N/A,,Clear,260,2013-08-31 18:15:00
1:35 PM,96.8,71.6,44,29.90,10.0,SSW,9.2,-,N/A,,Clear,200,2013-08-31 18:35:00
1:56 PM,96.8,71.6,44,29.89,10.0,WSW,9.2,-,N/A,,Clear,250,2013-08-31 18:56:00
2:15 PM,96.8,71.6,44,29.88,10.0,SW,5.8,-,N/A,,Clear,220,2013-08-31 19:15:00
2:35 PM,96.8,71.6,44,29.87,10.0,SSW,5.8,-,N/A,,Clear,210,2013-08-31 19:35:00
2:55 PM,96.8,71.6,44,29.87,10.0,SW,4.6,-,N/A,,Clear,230,2013-08-31 19:55:00
3:15 PM,96.8,71.6,44,29.86,10.0,SW,6.9,-,N/A,,Clear,230,2013-08-31 20:15:00
3:35 PM,96.8,69.8,41,29.86,10.0,SW,6.9,-,N/A,,Clear,230,2013-08-31 20:35:00
3:55 PM,96.8,71.6,44,29.85,10.0,WSW,6.9,-,N/A,,Clear,250,2013-08-31 20:55:00
4:15 PM,96.8,69.8,41,29.85,10.0,WSW,8.1,-,N/A,,Clear,250,2013-08-31 21:15:00
4:35 PM,96.8,69.8,41,29.84,10.0,WSW,4.6,-,N/A,,Clear,250,2013-08-31 21:35:00
4:55 PM,96.8,69.8,41,29.84,10.0,West,6.9,-,N/A,,Clear,260,2013-08-31 21:55:00
5:15 PM,96.8,69.8,41,29.83,10.0,SW,5.8,-,N/A,,Clear,230,2013-08-31 22:15:00
5:35 PM,96.8,69.8,41,29.83,10.0,Calm,Calm,-,N/A,,Clear,0,2013-08-31 22:35:00
5:55 PM,96.8,71.6,44,29.83,10.0,SSW,3.5,-,N/A,,Clear,200,2013-08-31 22:55:00
6:15 PM,95.0,73.4,49,29.83,10.0,SW,3.5,-,N/A,,Clear,220,2013-08-31 23:15:00
6:35 PM,93.2,71.6,49,29.83,10.0,SSW,4.6,-,N/A,,Clear,210,2013-08-31 23:35:00
6:55 PM,91.4,71.6,52,29.83,10.0,SSW,4.6,-,N/A,,Clear,200,2013-08-31 23:55:00
7:15 PM,89.6,71.6,55,29.83,10.0,South,3.5,-,N/A,,Clear,190,2013-09-01 00:15:00
7:35 PM,89.6,71.6,55,29.83,10.0,South,3.5,-,N/A,,Clear,190,2013-09-01 00:35:00
7:55 PM,87.8,71.6,58,29.83,10.0,South,3.5,-,N/A,,Clear,190,2013-09-01 00:55:00
8:15 PM,87.8,69.8,55,29.84,10.0,South,3.5,-,N/A,,Clear,180,2013-09-01 01:15:00
8:35 PM,87.8,69.8,55,29.84,10.0,South,3.5,-,N/A,,Clear,170,2013-09-01 01:35:00
8:55 PM,87.8,69.8,55,29.85,10.0,South,5.8,-,N/A,,Clear,170,2013-09-01 01:55:00
9:15 PM,86.0,69.8,58,29.85,10.0,SSW,3.5,-,N/A,,Clear,200,2013-09-01 02:15:00
9:35 PM,86.0,69.8,58,29.85,10.0,SSW,3.5,-,N/A,,Clear,210,2013-09-01 02:35:00
9:55 PM,86.0,69.8,58,29.85,10.0,SSW,5.8,-,N/A,,Clear,200,2013-09-01 02:55:00
10:15 PM,86.0,69.8,58,29.85,10.0,SSW,4.6,-,N/A,,Clear,200,2013-09-01 03:15:00
10:35 PM,84.2,69.8,62,29.85,10.0,South,5.8,-,N/A,,Clear,190,2013-09-01 03:35:00
10:55 PM,84.2,69.8,62,29.85,10.0,SSW,5.8,-,N/A,,Clear,210,2013-09-01 03:55:00
11:15 PM,84.2,69.8,62,29.84,10.0,SSW,4.6,-,N/A,,Clear,200,2013-09-01 04:15:00
11:35 PM,84.2,69.8,62,29.84,10.0,South,3.5,-,N/A,,Clear,190,2013-09-01 04:35:00
11:55 PM,82.4,69.8,66,29.84,10.0,South,4.6,-,N/A,,Clear,190,2013-09-01 04:55:00